When you browse on this site, cookies collect data to enhance your experience and personalize the content and advertising you see.
Visit our Privacy Policy to learn more. By continuing to use the site, you agree to this use of cookies and data.
  • In Denmark
  • List of Countries
  • For 7 days
  • Water Temperature
  • Satellite Maps
  • Weather Map
  • Weather Widgets
  • user-avatar
    Login

    Hourly Weather Zarka

    Today, 17 July, Wednesday

    Time Temperature Precipitation Wind Pressure Humidity
    00:00 +23°C° 0 mm 1 mps 700 mmHg 45%
    01:00 +23°C° 0 mm 1 mps 699 mmHg 44%
    02:00 +22°C° 0 mm 1 mps 699 mmHg 45%
    03:00 +23°C° 0 mm 1 mps 699 mmHg 44%
    04:00 +23°C° 0 mm 1 mps 699 mmHg 43%
    05:00 +23°C° 0 mm 2 mps 699 mmHg 42%
    06:00 +27°C° 0 mm 2 mps 699 mmHg 35%
    07:00 +30°C° 0 mm 3 mps 700 mmHg 29%
    08:00 +35°C° 0 mm 4 mps 700 mmHg 22%
    09:00 +36°C° 0 mm 5 mps 700 mmHg 20%
    10:00 +39°C° 0 mm 7 mps 700 mmHg 18%
    11:00 +41°C° 0 mm 8 mps 700 mmHg 16%
    12:00 +43°C° 0 mm 9 mps 700 mmHg 16%
    13:00 +43°C° 0 mm 10 mps 700 mmHg 15%
    14:00 +44°C° 0 mm 11 mps 700 mmHg 14%
    15:00 +42°C° 0 mm 10 mps 700 mmHg 18%
    16:00 +39°C° 0 mm 9 mps 700 mmHg 22%
    17:00 +37°C° 0 mm 8 mps 700 mmHg 25%
    18:00 +34°C° 0 mm 6 mps 700 mmHg 30%
    19:00 +30°C° 0 mm 4 mps 700 mmHg 34%
    20:00 +28°C° 0 mm 2 mps 700 mmHg 39%
    21:00 +27°C° 0 mm 2 mps 700 mmHg 40%
    22:00 +26°C° 0 mm 2 mps 700 mmHg 41%
    23:00 +25°C° 0 mm 2 mps 700 mmHg 42%

    Tomorrow, 18 July, Thursday

    Time Temperature Precipitation Wind Pressure Humidity
    00:00 +25°C° 0 mm 2 mps 700 mmHg 45%
    01:00 +25°C° 0 mm 2 mps 699 mmHg 47%
    02:00 +24°C° 0 mm 2 mps 699 mmHg 49%
    03:00 +24°C° 0 mm 2 mps 699 mmHg 53%
    04:00 +23°C° 0 mm 2 mps 699 mmHg 56%
    05:00 +23°C° 0 mm 2 mps 700 mmHg 60%
    06:00 +25°C° 0 mm 3 mps 700 mmHg 50%
    07:00 +28°C° 0 mm 4 mps 701 mmHg 41%
    08:00 +30°C° 0 mm 5 mps 701 mmHg 32%
    09:00 +32°C° 0 mm 6 mps 701 mmHg 30%
    10:00 +34°C° 0 mm 6 mps 701 mmHg 28%
    11:00 +35°C° 0 mm 7 mps 702 mmHg 27%
    12:00 +35°C° 0 mm 8 mps 701 mmHg 26%
    13:00 +37°C° 0 mm 9 mps 701 mmHg 25%
    14:00 +38°C° 0 mm 9 mps 701 mmHg 24%
    15:00 +35°C° 0 mm 9 mps 701 mmHg 27%
    16:00 +33°C° 0 mm 9 mps 701 mmHg 31%
    17:00 +32°C° 0 mm 9 mps 701 mmHg 34%
    18:00 +28°C° 0 mm 7 mps 701 mmHg 41%
    19:00 +26°C° 0 mm 4 mps 701 mmHg 49%
    20:00 +23°C° 0 mm 2 mps 701 mmHg 56%
    21:00 +23°C° 0 mm 2 mps 701 mmHg 58%
    22:00 +21°C° 0 mm 2 mps 701 mmHg 60%
    23:00 +20°C° 0 mm 2 mps 701 mmHg 62%

    Day after tomorrow, 19 July, Friday

    Time Temperature Precipitation Wind Pressure Humidity
    00:00 +20°C° 0 mm 2 mps 701 mmHg 64%
    01:00 +20°C° 0 mm 2 mps 701 mmHg 66%
    02:00 +19°C° 0 mm 3 mps 701 mmHg 68%
    03:00 +19°C° 0 mm 3 mps 701 mmHg 74%
    04:00 +19°C° 0 mm 2 mps 701 mmHg 79%
    05:00 +18°C° 0 mm 2 mps 701 mmHg 85%
    06:00 +20°C° 0 mm 3 mps 702 mmHg 75%
    07:00 +24°C° 0 mm 3 mps 702 mmHg 66%
    08:00 +26°C° 0 mm 4 mps 703 mmHg 56%
    09:00 +28°C° 0 mm 4 mps 703 mmHg 49%
    10:00 +29°C° 0 mm 4 mps 703 mmHg 41%
    11:00 +32°C° 0 mm 4 mps 703 mmHg 34%
    12:00 +33°C° 0 mm 5 mps 703 mmHg 31%
    13:00 +34°C° 0 mm 5 mps 702 mmHg 28%
    14:00 +35°C° 0 mm 6 mps 702 mmHg 25%
    15:00 +34°C° 0 mm 7 mps 702 mmHg 31%
    16:00 +33°C° 0 mm 7 mps 702 mmHg 36%
    17:00 +31°C° 0 mm 8 mps 701 mmHg 42%
    18:00 +28°C° 0 mm 6 mps 701 mmHg 51%
    19:00 +26°C° 0 mm 5 mps 701 mmHg 60%
    20:00 +22°C° 0 mm 3 mps 701 mmHg 69%
    21:00 +21°C° 0 mm 3 mps 701 mmHg 71%
    22:00 +20°C° 0 mm 2 mps 701 mmHg 73%
    23:00 +19°C° 0 mm 2 mps 701 mmHg 75%

    20 July, Saturday

    Time Temperature Precipitation Wind Pressure Humidity
    00:00 +19°C° 0 mm 2 mps 701 mmHg 74%
    01:00 +19°C° 0 mm 2 mps 701 mmHg 74%
    02:00 +18°C° 0 mm 2 mps 701 mmHg 74%
    03:00 +18°C° 0 mm 2 mps 701 mmHg 75%
    04:00 +18°C° 0 mm 2 mps 701 mmHg 76%
    05:00 +18°C° 0 mm 2 mps 701 mmHg 77%
    06:00 +20°C° 0 mm 2 mps 701 mmHg 68%
    07:00 +24°C° 0 mm 3 mps 702 mmHg 59%
    08:00 +26°C° 0 mm 3 mps 702 mmHg 50%
    09:00 +28°C° 0 mm 3 mps 702 mmHg 43%
    10:00 +30°C° 0 mm 4 mps 703 mmHg 37%
    11:00 +33°C° 0 mm 4 mps 703 mmHg 31%
    12:00 +34°C° 0 mm 4 mps 702 mmHg 28%
    13:00 +35°C° 0 mm 5 mps 702 mmHg 25%
    14:00 +36°C° 0 mm 6 mps 702 mmHg 23%
    15:00 +35°C° 0 mm 6 mps 702 mmHg 28%
    16:00 +33°C° 0 mm 7 mps 702 mmHg 34%
    17:00 +32°C° 0 mm 7 mps 701 mmHg 39%
    18:00 +29°C° 0 mm 6 mps 701 mmHg 49%
    19:00 +26°C° 0 mm 4 mps 701 mmHg 58%
    20:00 +22°C° 0 mm 3 mps 701 mmHg 68%
    21:00 +22°C° 0 mm 3 mps 701 mmHg 69%
    22:00 +21°C° 0 mm 3 mps 701 mmHg 70%
    23:00 +20°C° 0 mm 3 mps 701 mmHg 71%

    21 July, Sunday

    Time Temperature Precipitation Wind Pressure Humidity
    00:00 +20°C° 0 mm 2 mps 701 mmHg 74%
    01:00 +19°C° 0 mm 2 mps 700 mmHg 77%
    02:00 +18°C° 0 mm 2 mps 700 mmHg 80%
    03:00 +18°C° 0 mm 2 mps 700 mmHg 81%
    04:00 +18°C° 0 mm 2 mps 700 mmHg 82%
    05:00 +18°C° 0 mm 2 mps 700 mmHg 83%
    06:00 +21°C° 0 mm 2 mps 701 mmHg 70%
    07:00 +24°C° 0 mm 2 mps 701 mmHg 58%
    08:00 +27°C° 0 mm 2 mps 702 mmHg 45%
    09:00 +29°C° 0 mm 2 mps 702 mmHg 38%
    10:00 +32°C° 0 mm 2 mps 702 mmHg 31%
    11:00 +35°C° 0 mm 3 mps 702 mmHg 24%
    12:00 +36°C° 0 mm 3 mps 702 mmHg 22%
    13:00 +38°C° 0 mm 3 mps 702 mmHg 19%
    14:00 +40°C° 0 mm 4 mps 701 mmHg 17%
    15:00 +38°C° 0 mm 4 mps 701 mmHg 21%
    16:00 +37°C° 0 mm 5 mps 701 mmHg 25%
    17:00 +36°C° 0 mm 6 mps 700 mmHg 29%
    18:00 +33°C° 0 mm 5 mps 700 mmHg 38%
    19:00 +29°C° 0 mm 5 mps 700 mmHg 47%
    20:00 +27°C° 0 mm 4 mps 700 mmHg 56%
    21:00 +26°C° 0 mm 3 mps 700 mmHg 59%
    22:00 +25°C° 0 mm 3 mps 700 mmHg 62%
    23:00 +24°C° 0 mm 3 mps 700 mmHg 64%

    22 July, Monday

    Time Temperature Precipitation Wind Pressure Humidity
    00:00 +24°C° 0 mm 2 mps 700 mmHg 66%
    01:00 +23°C° 0 mm 2 mps 700 mmHg 68%
    02:00 +22°C° 0 mm 1 mps 699 mmHg 70%
    03:00 +22°C° 0 mm 1 mps 699 mmHg 71%
    04:00 +21°C° 0 mm 1 mps 699 mmHg 72%
    05:00 +21°C° 0 mm 1 mps 699 mmHg 74%
    06:00 +24°C° 0 mm 2 mps 700 mmHg 62%
    07:00 +27°C° 0 mm 2 mps 700 mmHg 51%
    08:00 +29°C° 0 mm 2 mps 701 mmHg 40%
    09:00 +32°C° 0 mm 2 mps 701 mmHg 33%
    10:00 +36°C° 0 mm 2 mps 701 mmHg 26%
    11:00 +38°C° 0 mm 2 mps 701 mmHg 19%
    12:00 +39°C° 0 mm 2 mps 701 mmHg 18%
    13:00 +42°C° 0 mm 3 mps 700 mmHg 17%
    14:00 +43°C° 0 mm 4 mps 700 mmHg 15%
    15:00 +41°C° 0 mm 5 mps 700 mmHg 22%
    16:00 +39°C° 0 mm 6 mps 699 mmHg 28%
    17:00 +37°C° 0 mm 8 mps 699 mmHg 35%
    18:00 +34°C° 0 mm 6 mps 699 mmHg 41%
    19:00 +30°C° 0 mm 5 mps 699 mmHg 48%
    20:00 +27°C° 0 mm 3 mps 699 mmHg 54%
    21:00 +27°C° 0 mm 3 mps 699 mmHg 55%
    22:00 +26°C° 0 mm 3 mps 699 mmHg 56%
    23:00 +25°C° 0 mm 3 mps 699 mmHg 57%
    Show more